Volver al catálogo

SL-8 R/B

ActivoPO
NORAD 28421·ROCKET BODY·🇷🇺 Russia

Lanzado Sep 23, 2004 desde Plesetsk Cosmodrome

Loading…

Próximos Pases (próximas 24 horas)

TLE

ActualizadoSource: Space-Track

Época: Sep 14, 2026, 08:57 UTC

1 28421U 04037C   26257.37319396 -.00000081  00000-0 -64568-3 0  9997
2 28421  82.4781 280.1166 0022254 115.9878 255.4610 12.44406877998032

Sigue SL-8 R/B en tiempo real con AllMySat

Download on the App Store